Kosmos-619

operational
NORAD ID: 6987 Int'l Des: 1973-104 Owner: GUKOSR Country: SU
LEOCIRCULAR

About Kosmos-619

Description loading...

Live Position

Loading 3D Globe...

Upcoming Passes

Altitude History

Altitude vs Time

uPlot chart will show altitude changes over time

Two-Line Element Set

1 06987U 73104C 25345.63186622 .00000008 00000-0 15342-3 0 9994
2 06987 74.0284 113.2847 0041424 272.8206 86.8106 12.52230363376119
Epoch: Dec 11, 2025 • Age: 10 hours

Current Status

Altitude 1481.5 km
Velocity 7.12 km/s
Sub-Earth Point 40.62°N, 31.23°E
Type other

Large Constellations

Loading constellations...